Voltar ao catálogo

CZ-4C R/B

AtivoSSO
NORAD 40276·ROCKET BODY·🇨🇳 China

Lançado Oct 20, 2014 de Taiyuan Satellite Launch Center

Loading…

Próximas Passagens (próximas 24 horas)

TLE

AtualizadoSource: Space-Track

Época: Sep 14, 2026, 18:17 UTC

1 40276U 14063B   26257.76201196 -.00000019  00000-0  44205-4 0  9997
2 40276 100.2321 185.0148 0143182  38.5867 322.5392 13.43039720583535

Acompanhe CZ-4C R/B em tempo real com AllMySat

Download on the App Store